Погода Добеле

Погода Добеле : погода сейчас, прогноз погоды и архив. Всё, что Вы хотите узнать о погоде Добеле!

Поиск расширенной информации на нашем сайте:

Другие новости

Новости СМИ2

Главная страница сайта

Новости сайта

03.07.2017

Напоминаем, что на нашем специализированном сайте Метеоцентр.Азия вы можете получить высокодетализированные автоматические прогнозы погоды по пунктам России, СНГ и мира в авиационном формате (включающие направление и скорость ветра, видимость, явления погоды, количество и форму облачности, нижнюю и верхнюю границу облачности).


Погода Добеле - сегодня

Время (UTC), дата Ветер
(°,м/с) 
Видим.   Явления Облачность Т
(°С)
Тd
(°С)
f(%) Тe
(°С)
Pmin
(гПа)
dP
(гПа)
Po
(мм)
O2
(г/м3)
Тmin Tmax R s Состояние
почвы
09 13.01.18 130 (ЮВ) н/о    н/о 
-6.4 -8.9 82 -8  1044.9  0.7  779  322           
12 13.01.18 130 (ЮВ) н/о    н/о 
-5.5 -8 83 -7  1044.2  -0.6  779  321           
15 13.01.18 130 (ЮВ) н/о    н/о 
-6.6 -8.2 88 -8  1043.6  -0.6  778  321           
18 13.01.18 090 (В) н/о    н/о 
-7.7 -9 90 -7  1043.6  -0.1  778  323    -5.3       
21 13.01.18 050 (СВ) н/о    н/о 
-8.7 -10 90 -8  1043.3  -0.3  778  324           
00 14.01.18 тихо ()   н/о    н/о 
-9.5 -10.8 90 -10  1042.2  -1.1  777  326           
03 14.01.18 100 (В) н/о    н/о 
-10 -11.3 90 -10  1041.9  -0.3  777  325           
06 14.01.18 120 (ЮВ) н/о    н/о 
-8.2 -9.2 92 -11  1041.2  -0.7  776  323  -10.3         
09 14.01.18 140 (ЮВ) н/о    н/о 
-8.2 -9.2 92 -10  1041.1  -0.1  776  323           
12 14.01.18 130 (ЮВ) н/о    н/о 
-8.6 -9.6 92 -12  1040.2  -0.9  776  324           
15 14.01.18 180 (Ю) н/о    н/о 
-8.5 -9.6 92 -11  1039.1  -1.1  775  323           
18 14.01.18 140 (ЮВ) н/о    н/о 
-8.5 -9.8 90 -12  1038.6  -0.5  775  323    -8.1       
21 14.01.18 160 (Ю) н/о    н/о 
-8.6 -10.3 87 -13  1037.7  -0.9  774  322           
00 15.01.18 170 (Ю) н/о    н/о 
-8.5 -10.3 87 -13  1036.4  -1.3  773  323           
03 15.01.18 160 (Ю) н/о    н/о 
-8.2 -10.2 85 -13  1034.7  -1.6  772  321           
06 15.01.18 180 (Ю) 6{10}  н/о    н/о 
-8.3 -10.7 83 -13  1033.3  -1.4  771  321  -8.8         
09 15.01.18 170 (Ю) 6{10}  н/о    н/о 
-8.9 -11.6 81 -14  1031.9  -1.4  770  321           
12 15.01.18 160 (Ю) 6-10{11}  н/о    н/о 
-8.2 -11.1 80 -13  1029  -2.9  767  320           
15 15.01.18 170 (Ю) 7{12}  н/о    н/о 
-8.4 -11.6 78 -14  1026.2  -2.8  765  318           
18 15.01.18 160 (Ю) 8-12{14}  н/о    н/о 
-8.7 -11.6 79 -15  1023.3  -2.9  763  318    -8.1       
21 15.01.18 170 (Ю) 8-10{13}  н/о    н/о 
-8.9 -11.9 79 -15  1020.8  -2.5  761  317           
00 16.01.18 170 (Ю) 8-11{13}  н/о    н/о 
-8.6 -11.3 81 -15  1018.1  -2.7  759  317           
03 16.01.18 150 (ЮВ) 7-10{13}  н/о    н/о 
-9.8 -12.1 83 -16  1014.9  -3.2  757  317           
06 16.01.18 160 (Ю) 8-11{13}  н/о    н/о 
-10 -12.9 79 -16  1011.2  -3.6  754  316  -10.4         
09 16.01.18 150 (ЮВ) 8-12{12}  н/о    н/о 
-7.5 -11.9 71 -13  1009.3  -1.9  753  312           
Время (UTC), дата Ветер
(°,м/с) 
Видим.   Явления Облачность Т
(°С)
Тd
(°С)
f(%) Тe
(°С)
Pmin
(гПа)
dP
(гПа)
Po
(мм)
O2
(г/м3)
Тmin Tmax R s Состояние
почвы

Для получения пояснительной информации подведите курсор к названию столбца.

ПОГОДА Добеле - архив

Всё, что Вы хотите узнать о погоде Добеле - удобно и подробно!

Выберите нужную дату (начиная с 1 января 2015* года) и нажмите кнопку "Найти".
Будут отображены архивные сводки погоды по пункту Добеле, начиная с указанной даты.


Отображать данные в формате CSV (для использования в таблицах Excel)


Внимание! Наш архив погоды предназначен исключительно для личного некоммерческого использования в познавательных целях. Если Вам необходимы официальные справки о состоянии погоды (для производственных, юридических, коммерческих и т.п. целей), обращайтесь в органы Росгидромета.

*Примечание: данная дата относится к архиву по метеостанциям СССР (Россия, СНГ, Балтия).
Архив по метеостанциям Зарубежной Европы и Азии (кроме Китая) хранится 10 дней, по другим регионам земного шара (Китай, Африка, Америка, Австралия, Океания) - 1 день.

Добеле - район местоположения метеостанции


Название, широта, долгота, высота метеостанции:
Добеле 56.6°ш. 23.3°д. 44 м над ур. моря [Латвия]

Дополнительная информация

В oтличие oт бoльшинства пoгoдных сайтoв мы публикуем пoдрoбную метеoинфoрмацию в детальнoм прoфессиoнальнoм фoрмате.

Характеристики температуры и влажнoсти вoздуха измеряются на высoте 2 м в тени вдали oт зданий и деревьев.
Скoрoсть ветра измеряется на высoте 10 м (на урoвне рoста челoвека скoрoсть ветра ниже в 1.5-2 раза). Если метеoстанция нахoдится в гoрoде или в лесу, тo скoрoсть ветра занижена на 2-4 м/с пo сравнению с oткрытым местoм. Скoрoсть ветра над акватoриями крупных рек и oзёр, а также на вершинах хoлмoв на 2-5 м/с выше, чем в oбычных услoвиях.
Атмoсфернoе давление в разных тoчках местнoсти мoжет значительнo oтличаться oт давления на метеoстанции, в зависимoсти oт услoвий рельефа (при пoдъёме на 10 м давление пoнижается примернo на 1 мм рт.ст.).